Location: Newark
(31.8769°N, 91.1411°W)
Time: 05:26:02
(UTC+00:00)

Envisat - Visible Passes

Search period start: 24 January 2020 00:00
Search period end: 03 February 2020 00:00
Orbit: 764 x 766 km, 98.1° (Epoch: 23 January)

Date Brightness Start Highest point End Pass type
(mag) Time Alt. Az. Time Alt. Az. Time Alt. Az.
24 Jan 6.2 01:23:18 10° WSW 01:25:39 13° W 01:28:00 10° WNW visible
24 Jan 5.3 11:55:50 10° NE 12:00:09 27° E 12:04:25 10° SSE visible
25 Jan 4.9 00:44:08 10° SSW 00:48:39 33° W 00:53:11 10° NW visible
25 Jan 6.5 11:21:56 10° ENE 11:23:06 11° E 11:24:15 10° ESE visible
26 Jan 3.1 00:06:45 10° S 00:11:49 82° WSW 00:16:55 10° NNW visible
26 Jan 4.0 12:20:45 10° NNE 12:25:42 52° E 12:30:38 10° S visible
27 Jan 5.9 01:10:57 10° SW 01:14:17 17° W 01:17:37 10° NW visible
27 Jan 5.8 11:44:58 10° NE 11:48:47 21° E 11:52:35 10° SE visible
28 Jan 4.4 00:32:32 10° S 00:37:19 42° W 00:42:08 10° NNW visible
28 Jan 3.0 23:55:29 10° SSE 00:00:32 78° ENE 00:05:37 10° N visible
29 Jan 4.6 12:09:38 10° NNE 12:14:23 39° E 12:19:07 10° SSE visible
30 Jan 5.5 00:58:58 10° SSW 01:02:54 23° W 01:06:53 10° NW visible
30 Jan 6.1 11:34:19 10° NE 11:37:25 16° E 11:40:31 10° SE visible
31 Jan 3.8 00:21:03 10° S 00:26:00 56° W 00:31:00 10° NNW visible
01 Feb 6.3 01:26:48 10° WSW 01:28:35 12° W 01:30:22 10° WNW visible
01 Feb 5.1 11:58:36 10° NE 12:03:04 30° E 12:07:29 10° SSE visible
02 Feb 5.1 00:47:10 10° SSW 00:51:34 29° W 00:55:58 10° NW visible
02 Feb 6.4 11:24:05 10° ENE 11:26:02 12° E 11:28:00 10° ESE visible
